Regional Weather Roundup
Issued by NWS Grand Forks, ND

Home | Current Version | Previous Version | Text Only | Print | Product List | Glossary On
Versions: 1 2 3 4 5 6 7 8 9 10 11 12 13 14 15 16 17 18 19 20 21 22 23 24 25 26 27 28 29 30 31 32 33 34 35 36 37 38 39 40 41 42 43 44 45 46 47 48 49 50
279
ASUS43 KFGF 040931
RWRFGF
PRAIRIE TO PINES  WEATHER ROUNDUP
NATIONAL WEATHER SERVICE EASTERN NORTH DAKOTA/GRAND FORKS ND
400 AM CDT WED MAY 04 2016

 **SATELLITE DATA USED TO AUGMENT SKY COVER AT AUTOMATED STATIONS**
 *****  WEATHER ACROSS EASTERN NORTH DAKOTA  *****

CITY           SKY/WX    TMP DP  RH WIND       PRES   REMARKS
GRAND FORKS    CLEAR     37  30  75 NW7       30.05R
GRAND FRKS AFB CLEAR     39  32  75 N8        30.05R
DEVILS LAKE    CLEAR     36  31  82 N6        30.08S
FARGO          CLEAR     40  28  62 N8        30.03R
WAHPETON ARPT  SUNNY     43  30  61 N8        30.03R
$$

 ***** WEATHER ACROSS CENTRAL AND WESTERN NORTH DAKOTA  *****

CITY           SKY/WX    TMP DP  RH WIND       PRES   REMARKS
BISMARCK       CLEAR     37  33  85 CALM      30.11R
MINOT          CLEAR     47  28  47 CALM      30.08S
JAMESTOWN      CLEAR     36  30  79 NW6       30.06S
MINOT AFB      CLEAR     40  31  69 S3        30.07S
GARRISON         N/A     43  31  62 CALM      30.09S
WILLISTON      CLEAR     43  38  82 CALM      30.07S
DICKINSON      CLEAR     42  34  73 S6        30.09S
HETTINGER      CLEAR     38  32  79 CALM      30.13R
$$

 *****  OTHER AIRPORT OBSERVATIONS IN OUR AREA  *****

CITY           SKY/WX    TMP DP  RH WIND       PRES   REMARKS
WALHALLA       FAIR      36  36 100 W5        30.07F
GRAFTON AIRPOR FAIR      39  32  75 NW9       30.08R
VALLEY CITY AR FAIR      36  36 100 NW8       30.08R
CANDO          FAIR      32  28  86 NW5       30.11R
CAVALIER APRT  FAIR      41  32  70 N6        30.06F
GWINNER        FAIR      41  32  70 NW10      30.05R
SHEYENNE NWR     N/A     43  29  58 N5        29.95S
ROLLA          FAIR      32  27  80 W3        30.09S
 ***** THE ABOVE OBSERVATIONS ARE NON NWS ARE NOT QUALITY
       CONTROLLED AND MAY MIS-REPORT RAIN FOR SNOW...
$$

  *****  WEATHER ACROSS NORTHERN MINNESOTA  *****

CITY           SKY/WX    TMP DP  RH WIND       PRES   REMARKS
FLAG ISLAND    CLEAR     45  36  70 N10       30.02R
WARROAD        CLEAR     36  32  87 CALM      30.03R
ROSEAU         CLEAR     39  34  81 NW3       30.03S
HALLOCK        CLEAR     36  30  80 CALM      30.05S
THF RVR FALLS  CLEAR     41  32  70 N7        30.04S
BAUDETTE       CLEAR     40  34  79 N6        30.00R
WASKISH        PTCLDY    41  36  81 NW6       30.00R
CROOKSTON      CLEAR     34  28  80 NW5       30.05R
STEPHEN NDAWN    N/A     34  27  75 N3          N/A
GREENBUSH NDAW   N/A     34  32  93 NW1         N/A
$$
  *****  WEATHER ACROSS CENTRAL AND WEST MINNESOTA  *****

CITY           SKY/WX    TMP DP  RH WIND       PRES   REMARKS
FOSSTON        CLEAR     36  32  87 CALM      30.03R
BEMIDJI        CLEAR     33  30  89 NW6       29.99S
PARK RAPIDS    CLEAR     39  31  72 NW3       29.98S
ELBOW LAKE     FAIR      42  35  75 N5        30.01R
WADENA         CLEAR     39  30  70 NW5       29.99R
DETROIT LAKES  CLEAR     41  34  75 NW6       30.02R
MOORHEAD       CLEAR     39  28  65 N6        30.04R
FERGUS FALLS   CLEAR     45  36  70 N5        29.99R
MORRIS MN      CLEAR     43  34  70 N7        29.99R
STAPLES        CLEAR     37  32  81 NW5       29.98S
$$
  *****  WEATHER ELSEWHERE ACROSS MINNESOTA  *****

CITY           SKY/WX    TMP DP  RH WIND       PRES   REMARKS
DULUTH         CLEAR     40  30  67 N5        29.90S
INTRNTL FALLS  CLEAR     38  31  76 N8        29.97R
ELY            CLEAR     34  30  86 CALM      29.91S
CLOQUET        CLEAR     39  28  65 NW6       29.92R
WHEATON        CLEAR     43  34  70 NW7       30.04R
BRAINERD       CLEAR     42  32  67 N5        29.96S
HIBBING        CLEAR     29  27  92 NW3       29.93R
ALEXANDRIA     CLEAR     44  34  67 N7        29.99R
SAINT CLOUD    CLEAR     42  32  67 N5        29.95R
MINNEAPOLIS    CLEAR     50  32  50 NE9       29.92R
$$

  *****  WEATHER ACROSS SOUTH DAKOTA  *****

CITY           SKY/WX    TMP DP  RH WIND       PRES   REMARKS
SIOUX FALLS    CLEAR     46  32  58 N13       29.99R
BROOKINGS      NOT AVBL
WATERTOWN      CLEAR     38  30  73 N6        30.01R
HURON          CLEAR     38  33  82 NW8       30.04R
SISSETON         N/A     42  31  64 NW10      30.02R
ABERDEEN       CLEAR     40  31  70 NW8       30.06R
MITCHELL       CLEAR     44  36  73 NW10      30.04R
PIERRE         CLEAR     45  32  60 CALM      30.08R
MOBRIDGE       CLEAR     39  32  76 CALM      30.07S
RAPID CITY     CLEAR     47  37  68 NW9       30.13R
$$

  *****  SOME WEATHER IN NEARBY STATES *****

CITY           SKY/WX    TMP DP  RH WIND       PRES   REMARKS
GLASGOW MT     CLEAR     51  39  63 E12       30.03F
GREAT FALLS MT CLEAR     46  37  71 SW10      30.02F
CHEYENNE WY    CLEAR     40  33  76 W9        30.26F
SCOTTSBLUFF NE CLEAR     45  39  79 NW9       30.18S
OMAHA NE       CLEAR     52  38  58 N12       29.91R
DES MOINES IA  PTCLDY    55  32  41 N15       29.80R
DAVENPORT IA   CLEAR     45  43  93 NW7       29.72R
CHICAGO IL     CLOUDY    49  47  93 NW6       29.62S
EAU CLAIRE WI  CLEAR     42  34  73 N6        29.86R
LA CROSSE WI   PTCLDY    48  39  71 N13G23    29.82R
$$

  *****  SOME NATIONAL WEATHER *****

CITY           SKY/WX    TMP DP  RH WIND       PRES   REMARKS
LA GUARDIA NY  LGT RAIN  51  48  89 E7        29.80S
RALEIGH NC     PTCLDY    59  56  89 CALM      29.70F
ATLANTA GA     CLEAR     56  49  77 NW7       29.83S
NEW ORLEANS LA MOCLDY    65  53  65 N16       29.95S
OKLAHOMA CITY  CLEAR     50  49  96 W5        30.03S
ALBUQUERQUE NM CLEAR     58  28  32 NE10      30.27F
SALT LAKE CITY CLEAR     55  37  50 S10       30.14F
LOS ANGELES CA MOCLDY    57  53  86 CALM      29.96F
BOISE ID       PTCLDY    62  34  35 SE8       29.99F
SEATTLE WA     CLOUDY    56  44  64 NE13      30.10S
$$

*** WEATHER ACROSS MANITOBA...SASKATCHEWAN AND ONTARIO ***
                ***ONTARIO***

CITY           SKY/WX    TMP DP  RH WIND       PRES   REMARKS
GERALDTON      FLURRIES  32  30  93 N9        29.82R WCI  24
THUNDER BAY    PTCLDY    39  32  75 N6        29.86R
SIOUX LOOKOUT  CLEAR     34  27  75 N5        29.96R
TORONTO        CLEAR     43  36  75 S5        29.72F
BIG TROUT LK   CLEAR     21  18  86 N5        30.04R WCI  15
PICKLE LAKE    NOT AVBL
DRYDEN         CLEAR     36  28  75 N7        29.96R
KENORA         CLEAR     37  30  75 N7        30.00R
$$
                *** MANITOBA***

CITY           SKY/WX    TMP DP  RH WIND       PRES   REMARKS
BRANDON        CLEAR     32  23  69 N3        30.08F
DAUPHIN        CLEAR     36  28  75 W7        30.06S
ISLAND LAKE    CLEAR     28  25  86 E2        30.08F
PILOT MOUND      N/A     34  27  75 NW5         N/A
THE PAS        CLOUDY    41  34  75 SE8       29.98F
THOMPSON       PTCLDY    34  21  60 VRB2      30.02F
WINNIPEG       CLEAR     32  30  93 NW6       30.07R
LYNN LAKE      PTCLDY    39  25  56 S7        29.90F
CHURCHILL      MOCLDY    21  19  93 S7        30.05  WCI  13
GILLAM         PTCLDY    23  19  86 S5        30.09F WCI  17
$$
                ***SASKATCHEWAN***

CITY           SKY/WX    TMP DP  RH WIND       PRES   REMARKS
ESTEVAN        CLEAR     41  34  75 E7        30.05S
KINDERSLEY     CLEAR     55  41  58 S12       29.91F
LLOYDMINSTER   CLEAR     55  41  58 S10       29.83F
PRINCE ALBERT  PTCLDY    45  41  87 E7        29.88F
REGINA         CLEAR     50  36  57 SE12      30.01S
YORKTON        PTCLDY    48  34  57 S12       30.01F
N. BATTLEFORD  CLEAR     63  39  42 SW8       29.88F
LA RONGE       CLEAR     50  34  53 S6        29.82F
SASKATOON      CLEAR     55  41  58 S8        29.92S
SWIFT CURRENT  CLEAR     54  41  62 S14       29.98F
$$
NOTE: THESE ARE AUTOMATED STATIONS WITH LIMITED QUALITY CONTROL
      "FAIR" INDICATES FEW OR NO CLOUDS BELOW 12,000 FEET WITH NO
      SIGNIFICANT WEATHER AND/OR OBSTRUCTIONS TO VISIBILITY.
      SKY/WX - SKY CONDITION AND SIGNIFICANT WEATHER.
      TMP - AIR TEMPERATURE.    DP   - DEWPOINT TEMPERATURE.
      RH  - RELATIVE HUMIDITY.  PRES - PRESSURE.
      HX  - HEAT INDEX.         WCI  - WIND CHILL INDEX.
$




USA.gov is the U.S. government's official web portal to all federal, state and local government web resources and services.